Regional Weather Roundup
Issued by NWS

Home | Current Version | Previous Version | Graphics & Text | Print | Product List | Glossary On
Versions: 1 2 3 4 5 6 7 8 9 10 11 12 13 14 15 16 17 18 19 20 21 22 23 24 25 26 27 28 29 30 31 32 33 34 35 36 37 38 39 40 41 42 43 44 45 46 47 48 49 50
954
ASUS43 KLMK 282002
RWRKY
KENTUCKY REGIONAL WEATHER ROUNDUP
NATIONAL WEATHER SERVICE LOUISVILLE KY
400 PM EDT WED JUN 28 2017

NOTE "FAIR" INDICATES FEW OR NO CLOUDS BELOW 12,000 FEET
WITH NO SIGNIFICANT WEATHER AND/OR OBSTRUCTIONS TO VISIBILITY.

KYZ001>023-026-027-061>063-070>075-282100-
WESTERN AND SOUTH CENTRAL KENTUCKY

CITY           SKY/WX    TMP DP  RH WIND       PRES   REMARKS
PADUCAH        CLOUDY    85  63  47 SW10G16   30.00F
HENDERSON      CLOUDY    84  62  47 S9        30.02F
OWENSBORO      CLOUDY    85  60  42 S10       30.04F
HOPKINSVILLE   SUNNY     85  59  41 SW6       30.04F
BOWLING GREEN  CLOUDY    84  55  36 VRB3      30.07F
GLASGOW        NOT AVBL
$$

KYZ024-025-028>034-038-045-046-053-282100-
NORTH CENTRAL KENTUCKY

CITY           SKY/WX    TMP DP  RH WIND       PRES   REMARKS
LOUISVILLE/SDF PTSUNNY   82  54  37 S13       30.06F
LOUISVILLE/LOU SUNNY     83  54  36 S9        30.07F
FORT KNOX      SUNNY     82  56  40 S3        30.06F
$$

KYZ035>037-039>044-047>052-055>060-089>105-282100-
NORTHEAST KENTUCKY

CITY           SKY/WX    TMP DP  RH WIND       PRES   REMARKS
LEXINGTON      SUNNY     81  50  33 S6        30.12F
COVINGTON      PTSUNNY   79  56  45 S17G23    30.09F
FRANKFORT      SUNNY     81  53  37 CALM      30.09F
$$

KYZ054-064>069-076>088-106>120-282100-
SOUTHEAST KENTUCKY

CITY           SKY/WX    TMP DP  RH WIND       PRES   REMARKS
JACKSON        CLOUDY    79  54  41 CALM      30.15F
LONDON         SUNNY     80  51  36 S5        30.13F
SOMERSET       SUNNY     79  50  36 S5        30.13F
MIDDLESBORO    SUNNY     82  55  38 S6        30.15F
MONTICELLO     CLEAR     81  55  40 NE6       30.13F
$$





USA.gov is the U.S. government's official web portal to all federal, state and local government web resources and services.